www.pogodaiklimat.ru

Погода и климат >> Архив погоды >> Австралия >> Западная Австралия >> Калгурли-Боулдер


ПОГОДА в Калгурли-Боулдере

  • Прогноз погоды в Калгурли-Боулдере
  • Монитор погоды в Калгурли-Боулдере

АРХИВ ПОГОДЫ в Калгурли-Боулдере

Время (UTC), дата Ветер
(напр.,м/с)
 
Видим.   Явления Облачность Т
(С)
Тd
(С)
f
(%)
Тe
(С)
Тes
(С)
Комфортность P
(гПа)
Po
(гПа)
Тmin
(С)
Tmax
(С)
R
(мм)
R24
(мм)
S
(см)
07 17.03 В 3 н/о н/о +33.2 +9.9 24 +32 +32 жарко 1011.6 970.1
09 17.03 ЮВ 4 н/о н/о +32.4 +9.2 24 +31 +31 жарко 1011.9 970.4
10 17.03 В 5 н/о 1/0
[]
+31.2 +10.5 28 +31 +31 жарко 1012.3 970.8
12 17.03 В 5 н/о н/о +29.6 +10.7 31 +30 +30 жарко 1013.9 972.3
13 17.03 В 5 н/о 9/0
[]
+28.9 +10.6 32 +29 +29 жарко 1014.2 972.6
15 17.03 В 5 н/о н/о +27.5 +10.7 35 +28 +28 жарко 1014.2 972.6
16 17.03 В 7 н/о н/о +25.0 +15.0 54 +28 +28 жарко 1014.6 973.0
18 17.03 В 5 н/о н/о +22.7 +15.0 62 +27 +27 душно 1014.6 973.0
19 17.03 ЮВ 5 н/о н/о +21.5 +15.1 67 +25 +25 комфорт 1014.5 972.9
21 17.03 В 5 н/о н/о +20.0 +15.0 73 +22 +22 комфорт 1015.1 973.5
22 17.03 В 5 н/о н/о +19.3 +14.8 75 +21 +21 комфорт 1015.5 973.9
00 18.03 В 5 н/о н/о +21.9 +15.3 66 +25 +25 комфорт 1016.7 975.0
01 18.03 В 4 н/о н/о +24.2 +15.4 58 +27 +27 жарко 1016.9 975.2
03 18.03 В 5 н/о н/о +28.0 +14.3 43 +30 +30 жарко 1015.5 973.9
04 18.03 В 6 н/о н/о +30.1 +13.4 36 +32 +32 жарко 1014.6 973.0
06 18.03 В 6 н/о н/о +31.5 +11.3 29 +32 +32 жарко 1012.6 971.1
07 18.03 В 5 н/о н/о +32.4 +10.4 26 +32 +32 жарко 1012.0 970.5
09 18.03 В 6 н/о н/о +31.7 +9.8 26 +31 +31 жарко 1012.1 970.6
10 18.03 В 7 н/о н/о +30.3 +8.7 26 +30 +30 жарко 1012.4 970.9
12 18.03 В 7 н/о н/о +28.5 +10.2 32 +29 +29 жарко 1013.5 972.0
13 18.03 В 6 н/о н/о +27.8 +10.9 35 +29 +29 жарко 1014.0 972.4
15 18.03 В 6 н/о н/о +26.0 +12.1 42 +27 +27 жарко 1014.1 972.5
16 18.03 В 6 н/о н/о +25.1 +12.7 46 +27 +27 жарко 1013.8 972.2
18 18.03 В 5 н/о н/о +22.8 +14.4 59 +26 +26 жарко 1013.8 972.2
19 18.03 В 6 н/о н/о +21.6 +14.0 62 +24 +24 комфорт 1013.6 972.1
21 18.03 В 4 н/о н/о +19.6 +13.5 68 +21 +21 комфорт 1014.1 972.5
22 18.03 В 5 н/о н/о +18.9 +13.5 71 +20 +20 1014.6 973.0
00 19.03 В 5 н/о н/о +21.1 +14.3 65 +24 +24 комфорт 1015.3 973.7
01 19.03 В 5 н/о н/о +23.3 +14.3 57 +27 +27 душно 1015.3 973.7 +19.0
03 19.03 В 5 н/о н/о +27.4 +13.7 43 +29 +29 жарко 1013.9 972.3
04 19.03 В 4 н/о н/о +28.8 +13.5 39 +30 +30 жарко 1012.7 971.2
06 19.03 ЮВ 3 н/о н/о +31.8 +12.6 31 +32 +32 жарко 1010.9 969.5
07 19.03 ЮЗ 2 н/о н/о +32.2 +11.4 28 +32 +32 жарко 1010.3 968.9
09 19.03 Ю 2 н/о н/о +31.4 +9.6 26 +31 +31 жарко 1010.4 969.0
10 19.03 ЮВ 5 н/о 6/0
[]
+30.3 +10.3 29 +30 +30 жарко 1010.4 969.0
12 19.03 Ю 4 н/о н/о +25.9 +14.7 50 +28 +28 жарко 1011.6 970.1
13 19.03 Ю 1 н/о н/о +24.3 +14.4 54 +27 +27 жарко 1011.5 970.0 +32.8
15 19.03 ЮВ 3 н/о н/о +25.1 +11.3 42 +26 +26 жарко 1011.5 970.0
16 19.03 В 5 н/о н/о +26.7 +12.4 41 +28 +28 жарко 1011.1 969.7
18 19.03 СВ 5 н/о н/о +26.3 +12.4 42 +28 +28 жарко 1010.7 969.3
19 19.03 В 5 н/о 8/0
[]
+25.6 +12.4 44 +27 +27 жарко 1010.8 969.4
21 19.03 ЮВ 4 н/о н/о +22.8 +12.1 51 +25 +25 комфорт 1011.6 970.1
22 19.03 ЮВ 4 н/о н/о +22.1 +12.1 53 +24 +24 комфорт 1012.1 970.6
00 20.03 В 4 н/о н/о +26.1 +12.9 44 +28 +28 жарко 1013.1 971.6
01 20.03 СВ 3 н/о н/о +29.4 +12.3 35 +30 +30 жарко 1013.1 971.6 +21.0
03 20.03 С 5 н/о н/о +33.8 +11.6 26 +34 +34 очень
жарко
1012.0 970.5
04 20.03 С 4 н/о 1/0
[]
+34.8 +10.6 23 +34 +45 очень
жарко
1010.8 969.4
06 20.03 СВ 4 н/о н/о +36.1 +10.3 21 +35 +35 очень
жарко
1009.2 967.8
07 20.03 С 3 н/о 10/0
[]
+35.7 +10.0 21 +35 +38 очень
жарко
1008.6 967.3
09 20.03 ЮВ 3 н/о н/о +29.4 +15.1 42 +32 +32 душно 1010.4 969.0
10 20.03 ЮВ 4 н/о 3/0
[]
+27.9 +15.9 48 +31 +31 душно 1010.5 969.1
12 20.03 ЮВ 4 н/о н/о +26.3 +16.0 53 +30 +30 душно 1012.3 970.8
13 20.03 ЮЗ 2 н/о ливневой дождь 10/0 2000 м
[]
+25.2 +17.9 64 +30 +30 душно 1013.3 971.8 +38.1
15 20.03 ЮВ 4 н/о н/о +24.5 +16.7 62 +28 +28 душно 1012.3 970.8
16 20.03 ЮВ 4 н/о в посл. час дождь со снегом 10/0
[]
+24.4 +16.1 60 +28 +28 душно 1011.8 970.3
18 20.03 В 5 н/о н/о +23.9 +16.9 65 +28 +28 душно 1010.7 969.3
19 20.03 ЮЗ 5 н/о слаб. дождь 9/0
[]
+23.3 +17.1 68 +28 +28 душно 1011.9 970.4
21 20.03 СВ 6 н/о н/о +24.8 +15.1 55 +28 +28 жарко 1011.0 969.6
22 20.03 СВ 3 н/о 1/0
[]
+23.7 +15.5 60 +27 +27 жарко 1011.3 969.8
00 21.03 СВ 5 н/о н/о +26.8 +15.5 50 +30 +30 душно 1011.5 970.0
01 21.03 СВ 6 н/о 10/0
[]
+29.6 +15.0 41 +32 +34 душно 1011.6 970.1 +22.0
03 21.03 С 7 н/о н/о +31.2 +13.9 35 +33 +33 жарко 1010.9 969.5
04 21.03 С 7 н/о 9/0
[]
+32.8 +13.9 32 +34 +37 очень
жарко
1010.1 968.7
06 21.03 С 10 н/о н/о +27.3 +16.6 52 +31 +31 душно 1010.4 969.0
07 21.03 С 8 н/о ливневой дождь 10/10 600 м
[]
+23.6 +18.9 75 +28 +28 душно 1011.4 969.9
09 21.03 СЗ 4 н/о н/о +23.5 +17.7 70 +28 +28 душно 1008.6 967.3
10 21.03 З 6 н/о {туман} 6/0
[]
+24.2 +17.4 66 +28 +28 душно 1010.1 968.7
12 21.03 ЮВ 4 н/о н/о +22.5 +16.3 68 +27 +27 душно 1012.2 970.7
13 21.03 ЮВ 5 н/о {туман} 10/0
[]
+22.1 +17.0 73 +27 +27 душно 1013.4 971.9
15 21.03 Ю 4 н/о н/о +21.3 +16.0 72 +25 +25 комфорт 1013.6 972.1
16 21.03 В 5 н/о 10/0
[]
+21.5 +16.0 71 +25 +25 комфорт 1011.8 970.3
18 21.03 В 4 н/о н/о +21.0 +15.1 69 +24 +24 комфорт 1010.6 969.2
22 21.03 штиль 0 н/о 1/0
[]
+18.1 +15.0 82 +18 +18 1011.1 969.7
01 22.03 СЗ 3 н/о н/о +26.1 +16.4 55 +30 +30 душно 1011.4 969.9
03 22.03 С 3 н/о н/о +30.7 +15.5 40 +33 +33 душно 1010.5 969.1
04 22.03 С 3 н/о н/о +32.1 +13.8 33 +33 +33 жарко 1009.5 968.1
06 22.03 С 3 н/о н/о +33.3 +11.8 27 +33 +33 жарко 1007.6 966.3
07 22.03 С 4 н/о н/о +34.3 +11.4 25 +34 +34 очень
жарко
1006.5 965.2
09 22.03 ЮВ 5 н/о н/о +23.3 +19.0 77 +30 +30 очень
душно
1008.1 966.8
10 22.03 В 3 н/о ливневой дождь {туман} 10/0 2000 м
[]
+23.1 +18.0 73 +29 +29 очень
душно
1009.1 967.7
12 22.03 В 4 н/о н/о +23.0 +15.6 63 +27 +27 душно 1011.1 969.7
13 22.03 ЮВ 2 н/о {туман} 8/0
[]
+21.8 +16.5 72 +26 +26 душно 1011.9 970.4
15 22.03 ЮЗ 4 н/о н/о +19.7 +18.9 95 +23 +23 комфорт 1013.6 972.1
16 22.03 ЮВ 3 н/о слаб. дождь {туман} 10/0
[]
+19.9 +19.2 96 +23 +23 комфорт 1011.9 970.4
18 22.03 Ю 6 н/о н/о +18.5 +17.3 93 +19 +19 1012.6 971.1
19 22.03 Ю 7 н/о 10/10 300 м
[]
+18.0 +16.0 88 +17 +17 1012.8 971.3
21 22.03 ЮВ 5 н/о н/о +17.7 +15.3 86 +17 +17 1014.0 972.4
22 22.03 ЮВ 6 н/о 10/10 300 м
[]
+17.7 +15.3 86 +17 +17 1014.7 973.1
00 23.03 ЮВ 7 н/о н/о +17.9 +15.0 83 +17 +17 1015.5 973.9
01 23.03 ЮВ 8 н/о 10/10 300 м
[]
+19.2 +15.1 77 +20 +20 1015.9 974.3
03 23.03 ЮВ 7 н/о н/о +19.7 +14.9 74 +21 +21 комфорт 1015.7 974.1
04 23.03 ЮВ 5 н/о 10/10 300 м
[]
+19.6 +15.7 78 +21 +21 комфорт 1015.4 973.8
06 23.03 ЮВ 5 н/о н/о +20.5 +15.5 73 +23 +23 комфорт 1014.1 972.5
07 23.03 ЮВ 6 н/о 10/10 600 м
[]
+20.7 +15.5 72 +24 +24 комфорт 1013.9 972.3
09 23.03 ЮВ 5 н/о н/о +20.4 +15.4 73 +23 +23 комфорт 1013.9 972.3
10 23.03 ЮВ 5 н/о н/о +19.2 +14.9 76 +20 +20 1014.1 972.5
12 23.03 ЮВ 4 н/о н/о +19.1 +14.6 75 +20 +20 1014.4 972.8
13 23.03 ЮВ 4 н/о 10/10 1000 м
[]
+19.2 +14.7 75 +21 +21 комфорт 1014.6 973.0
15 23.03 ЮВ 4 н/о н/о +18.5 +14.6 78 +19 +19 1014.1 972.5
16 23.03 Ю 3 н/о н/о +18.3 +14.6 79 +19 +19 1013.8 972.2
18 23.03 Ю 3 н/о н/о +15.9 +14.1 89 +16 +16 1013.1 971.6
19 23.03 Ю 3 н/о н/о +15.2 +13.9 92 +14 +14 1013.5 972.0
21 23.03 Ю 3 н/о н/о +14.7 +12.6 87 +14 +14 1015.3 973.7
22 23.03 Ю 3 н/о 5/5 600 м
[]
+13.2 +10.2 82 +12 +12 1015.9 974.3
00 24.03 Ю 5 н/о н/о +15.6 +9.1 65 +15 +15 1016.7 975.0
01 24.03 Ю 4 н/о н/о +17.1 +9.0 59 +17 +17 1017.2 975.5
03 24.03 Ю 4 н/о н/о +20.2 +10.6 54 +22 +22 комфорт 1016.8 975.1
04 24.03 Ю 4 н/о 4/4 1000 м
[]
+21.3 +10.2 49 +23 +30 комфорт 1016.0 974.4
06 24.03 Ю 5 н/о н/о +23.6 +7.3 35 +24 +24 комфорт 1014.0 972.4

 

Местоположение метеостанции Калгурли-Боулдер (Западная Австралия, Австралия): широта -30.78 долгота 121.45 высота над уровнем моря 370 м.

В архиве по умолчанию представлена погода в Калгурли-Боулдере за последнюю неделю. Архивные данные за месяц целиком и за предыдущие месяцы, начиная с января 2011 года, Вы можете получить, выбрав интересующий диапазон дат из раскрывающегося списка и нажав кнопку "Ввод!".


*Определитесь, кто Вы:
робот инопланетянин человек

Внимание! Время в таблицах - всемирное. Для получения местного времени необходимо прибавить поправку, которая равна 8 ч.

Смотрите также архив погоды в соседних городах и на ближайших метеорологических станциях:

Погода в Норсмане (Западная Австралия, Австралия) (163 км)
Погода в Саутерн Кросс (Западная Австралия, Австралия) (206 км)
Погода в Леоноре (Западная Австралия, Австралия) (212 км)
Погода в Салмон Гамс (Западная Австралия, Австралия) (245 км)
Погода в Лавертоне (Западная Австралия, Австралия) (259 км)
Погода в Мунглинап Запад (Западная Австралия, Австралия) (316 км)
Погода в Эсперансе (Западная Австралия, Австралия) (325 км)
Погода в Леинстере (Западная Австралия, Австралия) (334 км)
Погода в Эсперансе (Западная Австралия, Австралия) (342 км)
Погода в Ньюдегейте (Западная Австралия, Австралия) (359 км)

Пояснения к столбцам:

Ветер - указаны скорость ветра в м/с - средняя за 10 мин, порывы в срок и между сроками (в фигурных скобках) и направление, откуда дует ветер: С - северный, СВ - северо-восточный, В - восточный, ЮВ - юго-восточный, Ю - южный, ЮЗ - юго-западный, З - западный, СЗ - северо-западный.
Видимость - горизонтальная дальность видимости в метрах или километрах. При видимости от 1 до 10 км при отсутствии осадков обычно наблюдается дымка, при ухудшении видимости до 1 км и менее - туман. В сухую погоду видимость может ухудшаться дымом, пылью или мглою.
Явления - указаны атмосферные явления, наблюдавшиеся в срок или в последний час перед сроком; фигурными скобками обозначены явления, наблюдавшиеся между сроками (за 1-3 часа до срока); квадратными скобками обозначены град или гололедные отложения с указанием их диаметра в мм.
Облачность - указаны через наклонную черту общая и нижняя облачность в баллах и высота нижней границы облаков в метрах; квадратными скобками обозначены формы облаков: Ci - перистые, Cs - перисто-слоистые, Cc - перисто-кучевые, Ac - высококучевые, As - высокослоистые, Sc - слоисто-кучевые, Ns - слоисто-дождевые, Cu - кучевые, Cb - кучево-дождевые. Подробнее классификацию облаков см. в Атласе облаков (PDF).
T - Температура воздуха - температура, измеренная на высоте 2 м над землей.
Td - Температура точки росы - температура, при понижении до которой содержащийся в воздухе водяной пар достигнет насыщения.
f - Относительная влажность воздуха - влажноcть воздуха, измеренная на высоте 2 м над землей.
Te - Эффективная температура - температура, которую ощущает одетый по сезону человек в тени. Характеристика душности погоды. При расчете учитывается влияние влажности воздуха и скорости ветра на теплоощущения человека.
Tes - Эффективная температура на солнце - температура, которую ощущает человек, с поправкой на солнечный нагрев. Характеристика знойности погоды. Зависит от высоты солнца над горизонтом, облачности и скорости ветра. Ночью, в пасмурную погоду, а также при ветре 12 м/с и более поправка равна нулю.
P - Атмосферное давление - приведенное к уровню моря атмосферное давление.
Po - Атмосферное давление - измеренное на уровне метеостанции атмосферное давление.
Tmin - Минимальная температура - минимум температуры воздуха на высоте 2 м над землей.
Tmax - Максимальная температура - максимум температуры воздуха на высоте 2 м над землей.
R - Количество осадков - Количество выпавших осадков за период времени, мм. При наведении курсора мыши на число - период времени, за который выпало указанное количество осадков.
R24 - Количество осадков - Количество выпавших осадков за 24 часа, мм.
S - Снежный покров - Высота снежного покрова, см. При наведении курсора мыши на число - состояние снежного покрова и степень покрытия местности в баллах.